Weather History for Ozark, AL

Change the Weather History Date:

Saturday, March 2, 2013

  Actual Average Record
Temperature  
Mean Temperature 37 °F -  
Max Temperature 44 °F 64 °F 82 °F (1997)
Min Temperature 30 °F 43 °F 29 °F (2009)
Degree Days  
Heating Degree Days 28    
Moisture  
Dew Point 26 °F    
Average Humidity 62    
Maximum Humidity 86    
Minimum Humidity 46    
Precipitation  
Precipitation 0.00 in - - ()
Sea Level Pressure  
Sea Level Pressure 30.09 in    
Wind  
Wind Speed 7 mph (WNW)    
Max Wind Speed 15 mph    
Max Gust Speed 18 mph    
Visibility 10 miles    
Events      
Averages and records for this station are not official NWS values.
T = Trace of Precipitation, MM = Missing Value Source: NWS Daily Summary

Daily Weather History Graph

Daily Weather History Graph

Search for Another Location

Airport:

Trip Planner

Search our weather history database for the weather conditions in past years. The results will help you decide how hot, cold, wet, or windy it might be!

Date:

Astronomy

Mar. 02, 2013 Rise Set
Actual Time 6:08 AM CST 5:42 PM CST
Civil Twilight 5:43 AM CST 6:06 PM CST
Nautical Twilight 5:15 AM CST 6:34 PM CST
Astronomical Twilight 4:47 AM CST 7:02 PM CST
Moon 10:56 PM CST (3/2) 8:58 AM CST (3/2)
Length of Visible Light 12h 22m
Length of Day
11h 33m
Waning Gibbous, 74% of the Moon is Illuminated
Mar 2
Waning Gibbous
Mar 4
Last Quarter
Mar 11
New
Mar 19
First Quarter
Mar 27
Full

Hourly Weather History & Observations

Time (CST) Temp. Windchill Dew Point Humidity Pressure Visibility Wind Dir Wind Speed Gust Speed Precip Events Conditions
12:58 AM 35.2 °F 32.4 °F 25.9 °F 69% 30.09 in 10.0 mi West 3.5 mph - N/A   Clear
1:58 AM 32.0 °F 27.5 °F 25.0 °F 75% 30.08 in 10.0 mi WSW 4.6 mph - N/A   Clear
2:58 AM 30.0 °F 25.2 °F 25.2 °F 82% 30.07 in 10.0 mi WSW 4.6 mph - N/A   Clear
3:58 AM 31.5 °F 26.8 °F 26.4 °F 82% 30.07 in 10.0 mi West 4.6 mph - N/A   Overcast
4:55 AM 30.2 °F 26.7 °F 26.6 °F 86% 30.07 in 10.0 mi WSW 3.5 mph - N/A   Overcast
5:55 AM 30.2 °F 26.7 °F 26.6 °F 86% 30.09 in 10.0 mi WSW 3.5 mph - N/A   Overcast
6:55 AM 33.8 °F 29.6 °F 28.4 °F 81% 30.09 in 10.0 mi West 4.6 mph - N/A   Overcast
7:55 AM 37.4 °F 28.9 °F 28.4 °F 70% 30.11 in 10.0 mi WNW 13.8 mph - N/A   Overcast
8:55 AM 41.0 °F 33.9 °F 28.4 °F 61% 30.11 in 10.0 mi NW 12.7 mph - N/A   Mostly Cloudy
9:55 AM 42.8 °F 36.2 °F 24.8 °F 49% 30.11 in 10.0 mi WNW 12.7 mph - N/A   Overcast
10:59 AM 42.8 °F 36.2 °F 23.0 °F 46% 30.12 in 10.0 mi West 12.7 mph - N/A   Overcast
11:59 AM 44.6 °F 37.8 °F 24.8 °F 46% 30.09 in 10.0 mi WNW 15.0 mph 18.4 mph N/A   Overcast
12:59 PM 44.6 °F 37.8 °F 24.8 °F 46% 30.09 in 10.0 mi WNW 15.0 mph 18.4 mph N/A   Overcast
1:54 PM 42.8 °F 35.8 °F 24.8 °F 49% 30.05 in 10.0 mi WNW 13.8 mph - N/A   Overcast
1:55 PM 42.8 °F 36.2 °F 24.8 °F 49% 30.06 in 10.0 mi WNW 12.7 mph - N/A   Overcast
2:54 PM 42.8 °F 37.5 °F 24.8 °F 49% 30.05 in 10.0 mi NW 9.2 mph - N/A   Overcast
2:55 PM 42.8 °F 37.5 °F 24.8 °F 49% 30.06 in 10.0 mi NW 9.2 mph - N/A   Overcast
3:55 PM 42.8 °F 37.5 °F 24.8 °F 49% 30.06 in 10.0 mi NW 9.2 mph - N/A   Overcast
4:55 PM 37.4 °F 32.1 °F 26.6 °F 65% 30.08 in 10.0 mi WNW 6.9 mph - N/A   Overcast
5:54 PM 39.2 °F 32.0 °F 26.6 °F 61% 30.08 in 10.0 mi WNW 11.5 mph - N/A   Overcast
7:58 PM 39.2 °F 33.6 °F 26.4 °F 60% 30.12 in 10.0 mi WNW 8.1 mph - N/A   Overcast
8:58 PM 38.8 °F 33.2 °F 26.6 °F 61% 30.14 in 10.0 mi NW 8.1 mph - N/A   Overcast
9:58 PM 37.9 °F 32.7 °F 25.7 °F 61% 30.14 in 10.0 mi NW 6.9 mph - N/A   Overcast
10:58 PM 37.6 °F 32.3 °F 25.9 °F 63% 30.12 in 10.0 mi WNW 6.9 mph - N/A   Overcast
11:58 PM 37.2 °F 31.2 °F 25.0 °F 61% 30.12 in 10.0 mi WNW 8.1 mph - N/A   Overcast